Observations for Trim Market St
| Time | AQI | Temp °C | Hum % | Pres Pa | CO μg/m³ | H₂S μg/m³ | NO μg/m³ | NO₂ μg/m³ | O₃ μg/m³ | SO₂ μg/m³ | PM1 μg/m³ | PM2.5 μg/m³ | PM10 μg/m³ |
|---|---|---|---|---|---|---|---|---|---|---|---|---|---|
| Wednesday 15 July 2026 | |||||||||||||
| 06:17 | 1 | 17.7 | 80 | 2,147,483,647 | 0.23 | 0 | 0 | 5.74 | 16.5 | 0 | 8.55 | 13.47 | 18.93 |
| 06:10 | 1 | 17.5 | 80 | 2,147,483,647 | 0.21 | 0 | 0 | 5.28 | 18.91 | 0 | 11.4 | 14.88 | 20.05 |
| 06:08 | 1 | 17.5 | 80 | 2,147,483,647 | 0.2 | 0 | 0.09 | 7.68 | 14.53 | 0 | 8.55 | 11.57 | 16.07 |
| 06:07 | 1 | 17.5 | 80 | 2,147,483,647 | 0.2 | 0 | 0 | 5.78 | 15.03 | 0 | 9.26 | 12.51 | 18.35 |
| 06:06 | 1 | 17.5 | 80 | 2,147,483,647 | 0.2 | 0 | 0 | 5.38 | 13 | 0 | 10.69 | 13.93 | 18.91 |
| 06:05 | 1 | 17.5 | 80 | 2,147,483,647 | 0.2 | 0 | 0 | 5.88 | 16.83 | 0 | 12.11 | 14.4 | 21.19 |
| 06:04 | 1 | 17.5 | 80 | 2,147,483,647 | 0.21 | 0 | 0 | 5.58 | 14.98 | 0 | 8.55 | 11.1 | 18.91 |
| 06:01 | 1 | 17.4 | 80 | 2,147,483,647 | 0.21 | 0 | 0 | 5.81 | 12.76 | 0 | 9.26 | 12.99 | 18.91 |
| 06:00 | 1 | 17.4 | 80 | 2,147,483,647 | 0.2 | 0 | 0 | 5.91 | 16.05 | 0 | 8.55 | 12.04 | 18.91 |
| 05:59 | 1 | 17.4 | 80 | 2,147,483,647 | 0.2 | 0 | 0 | 5.71 | 14.82 | 0 | 9.26 | 12.04 | 17.21 |
| 05:57 | 1 | 17.4 | 80 | 2,147,483,647 | 0.2 | 0 | 0 | 5.51 | 12.94 | 0 | 8.55 | 13.93 | 21.19 |
| 05:56 | 1 | 17.4 | 80 | 2,147,483,647 | 0.21 | 0 | 0 | 6.91 | 16.64 | 0 | 8.55 | 10.62 | 15.5 |
| 05:53 | 1 | 17.4 | 80 | 2,147,483,647 | 0.21 | 0 | 0 | 6.81 | 13.78 | 0 | 9.98 | 12.99 | 17.78 |
| 05:47 | 1 | 17.3 | 80 | 2,147,483,647 | 0.2 | 0 | 0 | 5.54 | 13.03 | 0 | 9.98 | 13.47 | 18.36 |
| 05:44 | 1 | 17.3 | 80 | 2,147,483,647 | 0.19 | 0 | 0 | 7.16 | 17.23 | 0 | 9.26 | 12.53 | 17.8 |
| 05:42 | 1 | 17.3 | 80 | 2,147,483,647 | 0.2 | 0 | 0 | 6.76 | 17.01 | 0 | 10.69 | 13.47 | 18.37 |
| 05:37 | 1 | 17.3 | 79 | 2,147,483,647 | 0.18 | 0 | 0 | 7.17 | 16.6 | 0 | 9.26 | 12.06 | 16.67 |
| 05:36 | 1 | 17.3 | 79 | 2,147,483,647 | 0.19 | 0 | 0 | 4.98 | 18.05 | 0 | 9.98 | 13.96 | 21.25 |
| 05:35 | 1 | 17.3 | 79 | 2,147,483,647 | 0.18 | 0 | 0 | 5.88 | 17.06 | 0 | 8.55 | 13.02 | 20.11 |
| 05:34 | 1 | 17.3 | 79 | 2,147,483,647 | 0.19 | 0 | 0 | 6.58 | 16.77 | 0 | 9.26 | 14.44 | 21.25 |